Hourly Data Report for October 20, 2016

All times are specified in Local Standard Time (LST). Add 1 hour to adjust for Daylight Saving Time where and when it is observed.

PETAWAWA AWOS 2
ONTARIO

45°57'00.000" N
77°19'00.000" W
130.10 m
6106396
71625
YWA

Download Data

Hourly Data (October 2016)
Hourly Data Report for October 20, 2016
Temp Definition
°C
Dew Point Temp Definition
°C
Rel Hum Definition
%
Wind Dir Definition
10's deg

Wind Spd Definition
km/h
Visibility Definition
km
Stn Press Definition
kPa
Hmdx Definition


Wind Chill Definition


Weather Definition


TIME
00:00 5.1 5.1 100   0 14.5 100.38     LegendNANA
01:00 4.9 4.6 98 29 4 14.5 100.39     LegendNANA
02:00 4.5 4.5 100   0 14.5 100.44     LegendNANA
03:00 4.0 3.8 99 20 4 14.5 100.47     LegendNANA
04:00 4.2 4.2 100 29 4 14.5 100.47     LegendNANA
05:00 4.6 4.6 100   0 14.5 100.50     LegendNANA
06:00 4.8 4.8 100   0 14.5 100.51     LegendNANA
07:00 5.4 5.4 100 25 4 14.5 100.51     LegendNANA
08:00 6.9 6.9 100 25 4 14.5 100.53     LegendNANA
09:00 8.0 8.0 100 22 4 14.5 100.53     LegendNANA
10:00 9.7 9.4 98   0 14.5 100.52     LegendNANA
11:00 10.8 9.7 93   0 14.5 100.47     LegendNANA
12:00 11.9 8.9 82   0 14.5 100.42     LegendNANA
13:00 12.6 9.6 82 15 6 14.5 100.33     LegendNANA
14:00 12.9 10.1 83 14 4 14.5 100.33     LegendNANA
15:00 12.8 10.6 86 14 4 14.5 100.31     LegendNANA
16:00 12.2 11.2 94 12 6 14.5 100.25     Rain
17:00 11.8 11.7 99 13 4 6.4 100.27     Rain
18:00 12.0 12.0 100 15 6 14.5 100.26     LegendNANA
19:00 11.7 11.7 100 14 4 14.5 100.21     LegendNANA
20:00 11.4 11.4 100   0 14.5 100.21     LegendNANA
21:00 11.2 10.8 97   0 14.5 100.16     LegendNANA
22:00 10.7 10.7 100 30 4 14.5 100.10     LegendNANA
23:00 10.1 10.1 100 21 4 14.5 100.10     Rain

Notes on Data Quality.

Legend

  • E = Estimated
  • M = Missing
  • NA = Not Available
  • ‡ = Partner data that is not subject to review by the National Climate Archives
Date modified: